Seattle, WA

7:12 AM PST on December 05, 2016 (GMT -0800)
Boeing Field-King County International

Weather History for KBFI - January, 2014

Change the Weather History Date:

Wednesday, January 1, 2014

  Actual Average Record
Temperature  
Mean Temperature 44 °F -  
Max Temperature 46 °F 43 °F 55 °F (1997)
Min Temperature 41 °F 33 °F 10 °F (1952)
Degree Days  
Heating Degree Days 22    
Moisture  
Dew Point 40 °F    
Average Humidity 86    
Maximum Humidity 93    
Minimum Humidity 76    
Precipitation  
Precipitation 0.01 in - - ()
Sea Level Pressure  
Sea Level Pressure 30.36 in    
Wind  
Wind Speed 1 mph (East)    
Max Wind Speed 5 mph    
Max Gust Speed -    
Visibility 5 miles    
Events Fog , Rain    
Averages and records for this station are not official NWS values.
T = Trace of Precipitation, MM = Missing Value Source: NWS Daily Summary

Daily Weather History Graph

Daily Weather History Graph

Search for Another Location

Airport or City:

Trip Planner

Search our weather history database for the weather conditions in past years. The results will help you decide how hot, cold, wet, or windy it might be!

Date:

Astronomy

Jan. 01, 2014 Rise Set
Actual Time 7:57 AM PST 4:28 PM PST
Civil Twilight 7:21 AM PST 5:04 PM PST
Nautical Twilight 6:42 AM PST 5:43 PM PST
Astronomical Twilight 6:05 AM PST 6:21 PM PST
Moon 7:47 AM PST (1/1) 5:26 PM PST (1/1)
Length of Visible Light 9h 43m
Length of Day
8h 31m
New Moon, 0% of the Moon is Illuminated
Jan 1
New Moon
Jan 7
First Quarter
Jan 15
Full
Jan 23
Last Quarter
Jan 30
New

Hourly Weather History & Observations

Time (PST) Temp. Windchill Dew Point Humidity Pressure Visibility Wind Dir Wind Speed Gust Speed Precip Events Conditions
12:31 AM 42.8 °F - 41.0 °F 93% 30.39 in 0.2 mi Calm Calm - N/A Fog Fog
12:53 AM 43.0 °F 41.3 °F 41.0 °F 93% 30.40 in 0.2 mi SE 3.5 mph - N/A Fog Fog
1:53 AM 43.0 °F 41.3 °F 39.9 °F 89% 30.41 in 0.2 mi East 3.5 mph - N/A Fog Fog
2:53 AM 41.0 °F - 39.0 °F 93% 30.42 in 0.2 mi Calm Calm - N/A Fog Fog
3:53 AM 42.1 °F - 39.9 °F 92% 30.41 in 0.2 mi Calm Calm - N/A Fog Fog
4:53 AM 42.1 °F - 39.9 °F 92% 30.40 in 0.2 mi Calm Calm - N/A Fog Fog
5:00 AM 42.8 °F - 39.2 °F 87% 30.40 in 0.5 mi Calm Calm - N/A Fog Fog
5:53 AM 41.0 °F 38.0 °F 39.0 °F 93% 30.39 in 0.8 mi NNE 4.6 mph - N/A   Mist
6:00 AM 41.0 °F 39.0 °F 39.2 °F 93% 30.39 in 1.0 mi North 3.5 mph - N/A   Mist
6:53 AM 42.1 °F - 39.0 °F 89% 30.38 in 1.5 mi Calm Calm - N/A   Overcast
7:53 AM 42.1 °F - 39.0 °F 89% 30.39 in 1.0 mi Calm Calm - N/A   Overcast
8:53 AM 41.0 °F - 37.9 °F 89% 30.41 in 1.5 mi Calm Calm - N/A   Overcast
9:00 AM 42.8 °F 41.1 °F 37.4 °F 81% 30.40 in 2.0 mi East 3.5 mph - N/A   Overcast
9:53 AM 42.1 °F - 39.0 °F 89% 30.40 in 1.0 mi Calm Calm - N/A   Overcast
10:53 AM 43.0 °F - 39.0 °F 86% 30.40 in 1.5 mi Calm Calm - N/A   Overcast
11:00 AM 42.8 °F - 39.2 °F 87% 30.39 in 3.0 mi Calm Calm - N/A   Overcast
11:53 AM 44.1 °F 42.5 °F 39.9 °F 85% 30.37 in 4.0 mi SSE 3.5 mph - N/A   Overcast
12:53 PM 44.1 °F - 39.0 °F 82% 30.36 in 5.0 mi Calm Calm - N/A   Overcast
1:19 PM 44.6 °F - 39.2 °F 81% 30.35 in 5.0 mi Calm Calm - N/A   Haze
1:53 PM 45.0 °F - 39.0 °F 80% 30.35 in 6.0 mi Calm Calm - N/A   Haze
2:10 PM 46.4 °F - 39.2 °F 76% 30.34 in 8.0 mi Calm Calm - N/A   Overcast
2:53 PM 46.0 °F - 39.9 °F 79% 30.33 in 10.0 mi Calm Calm - N/A   Overcast
3:53 PM 46.0 °F - 39.9 °F 79% 30.35 in 10.0 mi Calm Calm - N/A   Overcast
4:53 PM 46.0 °F - 39.9 °F 79% 30.36 in 10.0 mi Calm Calm - 0.00 in Rain Light Rain
5:53 PM 46.0 °F - 41.0 °F 83% 30.36 in 10.0 mi Calm Calm - 0.01 in Rain Light Rain
6:53 PM 44.1 °F - 39.9 °F 85% 30.34 in 9.0 mi Calm Calm - 0.00 in   Overcast
7:53 PM 45.0 °F - 41.0 °F 86% 30.31 in 10.0 mi Calm Calm - N/A   Overcast
8:53 PM 45.0 °F - 39.9 °F 82% 30.28 in 10.0 mi Calm Calm - N/A   Overcast
9:53 PM 45.0 °F - 41.0 °F 86% 30.27 in 10.0 mi Calm Calm - N/A   Overcast
10:53 PM 46.0 °F - 39.9 °F 79% 30.27 in 10.0 mi Calm Calm - N/A   Overcast
11:53 PM 45.0 °F - 41.0 °F 86% 30.26 in 10.0 mi Calm Calm - N/A   Overcast